Vorticity
nan nan nan nan nan nan nan nan nan nan nan nan nan nan nan nan nan nan nan nan nan nan nan nan nan nan nan nan nan nan nan nan nan nan nan nan nan nan nan nan nan nan nan nan
nan 9 10 10 10 19 15 12 13 11 12 14 9 7 4 4 12 7 5 5 8 10 9 17 14 5 7 20 21 23 6 2 3 10 3 12 11 9 7 4 6 16 9 nan
nan 9 9 10 10 12 16 13 16 12 7 8 9 12 15 12 5 9 9 6 8 8 7 11 14 11 1 12 9 8 26 16 5 1 8 9 10 8 8 7 5 2 17 nan
nan 9 8 8 9 13 19 11 9 9 11 7 7 8 11 17 12 8 9 9 8 5 6 8 8 11 8 9 14 12 16 11 7 -1 7 15 13 9 8 4 1 10 21 nan
nan 10 9 9 7 16 18 8 9 8 10 9 13 11 7 8 11 10 8 10 11 8 6 9 8 6 8 7 11 18 12 14 15 6 1 4 7 8 6 6 9 12 17 nan
nan 10 10 11 12 17 13 14 11 8 10 12 13 9 9 11 9 10 10 14 14 17 12 5 4 2 6 8 9 12 17 17 15 12 8 1 7 4 6 8 11 12 15 nan
nan 10 11 13 15 13 8 10 10 13 12 10 7 9 7 6 11 15 19 11 6 8 11 14 12 9 8 6 6 7 13 15 13 15 14 9 5 14 7 7 9 11 13 nan
nan 9 10 13 17 12 7 9 10 11 9 9 17 16 9 8 13 16 12 11 13 9 5 10 12 12 14 16 15 9 5 10 12 15 8 12 14 11 8 11 10 13 7 nan
nan 11 12 13 15 14 9 9 11 7 11 6 1 13 20 18 12 14 20 11 9 9 12 14 12 9 12 12 18 14 7 5 10 13 19 7 9 10 12 5 16 18 9 nan
nan 10 11 13 17 16 11 11 11 7 11 8 4 2 7 15 15 8 22 20 12 12 9 10 12 10 12 12 13 12 8 11 10 5 12 13 13 12 9 8 16 20 16 nan
nan 9 9 8 13 21 13 10 14 10 9 13 15 9 3 4 2 5 14 17 16 17 12 11 8 14 12 13 15 12 4 6 11 11 10 20 13 11 5 3 10 18 18 nan
nan 9 9 9 7 17 16 8 11 14 9 10 12 15 11 8 1 3 4 10 13 18 20 15 11 12 14 15 13 14 2 6 5 11 2 8 21 8 5 5 7 14 18 nan
nan 10 10 10 10 11 11 11 11 9 11 14 13 13 22 20 13 1 2 4 9 7 8 13 15 10 18 19 18 8 13 12 5 10 9 -1 4 17 8 7 6 10 17 nan
nan 11 11 11 12 12 11 11 10 7 10 11 11 15 21 22 25 13 -1 -7 1 7 13 15 11 12 10 8 16 11 20 19 13 10 13 13 9 6 10 15 9 11 20 nan
nan 10 11 12 12 15 16 15 16 12 6 7 5 17 24 23 21 18 14 11 1 6 14 14 9 6 12 11 8 22 14 12 14 14 14 9 17 10 6 11 15 14 14 nan
nan 10 11 12 13 16 16 15 16 17 11 8 7 16 25 27 23 16 14 13 10 9 9 9 10 9 12 14 12 16 8 8 11 3 8 28 19 15 10 7 11 16 14 nan
nan 11 12 15 18 17 6 8 19 15 7 9 10 11 20 13 9 13 15 9 9 11 11 12 10 15 11 11 13 6 7 13 12 8 6 12 17 13 17 15 12 15 17 nan
nan 12 16 24 18 11 17 22 14 3 5 9 11 14 16 10 6 11 11 9 10 11 9 12 13 13 9 12 9 -1 9 16 18 14 9 3 8 15 21 19 17 16 14 nan
nan 18 27 22 14 10 8 23 15 -1 7 11 10 10 15 12 8 12 11 12 12 9 11 11 12 14 8 2 5 7 10 12 14 16 18 20 10 15 22 18 11 11 12 nan
nan 26 17 9 8 13 14 7 8 12 9 9 10 9 11 13 9 10 10 12 13 12 12 11 11 8 12 8 7 10 10 11 14 20 22 17 14 20 21 14 9 10 14 nan
nan 14 8 11 14 12 9 8 13 10 12 11 8 10 10 14 14 10 11 13 12 13 12 10 13 15 6 8 13 13 13 15 18 22 18 19 23 22 17 14 13 15 14 nan
nan 11 13 14 13 11 11 13 13 7 12 14 12 15 12 8 11 12 12 11 11 10 9 11 11 8 5 13 13 12 15 15 21 24 25 22 21 20 17 15 14 14 15 nan
nan 14 10 12 12 11 15 11 9 13 11 7 8 12 13 10 10 14 14 11 7 12 12 10 10 6 9 13 15 14 14 15 17 18 19 20 21 17 15 13 15 15 13 nan
nan 11 13 14 9 9 10 8 9 13 10 7 12 14 13 13 9 10 10 11 13 11 13 14 6 5 11 13 12 12 13 13 13 15 15 13 14 16 16 16 16 14 14 nan
nan 11 13 10 6 11 12 11 11 10 9 11 15 15 12 12 9 12 16 8 10 10 13 15 7 7 10 10 12 13 11 12 13 13 14 14 13 14 14 16 15 15 17 nan
nan 10 11 11 13 14 11 9 10 10 10 13 13 10 14 11 12 15 11 10 14 14 16 14 9 7 7 10 10 11 12 15 12 13 15 15 14 15 13 14 15 18 17 nan
nan nan nan nan nan nan nan nan nan nan nan nan nan nan nan nan nan nan nan nan nan nan nan nan nan nan nan nan nan nan nan nan nan nan nan nan nan nan nan nan nan nan nan nan
CAPE
10 8 0 0 0 0 0 0 0 0 0 0 0 0 0 0 0 0 0 0 0 0 0 0 0 0 0 0 0 0 0 4 149 100 1 16 131 190 229 321 487 179 146 37
23 22 7 0 0 0 0 0 0 0 0 0 0 0 0 0 0 0 0 0 0 0 0 0 0 0 0 0 0 0 0 0 62 50 10 8 106 180 197 205 158 219 99 4
21 14 0 0 0 0 0 0 0 0 0 0 0 0 0 0 0 0 0 0 0 0 0 0 0 0 0 0 0 0 0 0 20 117 138 112 130 174 134 29 256 350 155 5
8 13 2 0 0 0 0 0 0 0 0 0 0 0 0 0 0 0 0 0 0 0 0 0 0 0 0 0 0 0 0 0 0 50 65 79 109 68 52 42 54 290 156 91
19 20 31 25 0 0 0 0 0 0 0 0 0 0 0 0 0 0 0 0 0 0 0 0 0 0 0 0 0 0 0 0 0 0 0 1 53 41 21 8 0 239 290 73
19 18 39 43 4 0 1 5 4 1 0 0 0 0 0 0 0 0 0 0 0 0 0 0 0 0 0 0 0 0 0 0 0 0 0 3 0 0 1 4 9 183 237 147
13 24 55 69 14 0 25 26 15 12 0 0 0 3 11 29 30 34 4 0 1 0 0 0 0 0 0 0 0 0 0 0 0 0 1 0 0 3 12 2 3 130 255 302
10 17 35 76 37 8 45 51 33 1 16 12 10 13 22 7 0 19 40 53 19 15 0 0 0 0 0 0 0 0 0 0 0 0 0 0 0 6 3 0 2 10 259 416
19 18 27 35 58 17 44 100 121 70 25 18 18 24 21 19 56 10 71 61 79 67 16 1 0 0 0 0 0 0 0 0 0 0 0 0 7 0 0 0 11 37 203 669
14 20 26 24 52 40 19 56 93 140 72 5 17 25 16 44 53 107 106 116 98 56 46 14 0 0 0 0 0 0 0 0 0 0 0 0 0 12 0 0 0 4 206 668
26 26 24 15 27 53 44 60 104 145 55 5 6 34 20 12 7 58 9 114 123 143 105 43 2 0 0 0 0 0 0 0 0 0 0 0 0 4 0 5 151 206 175 607
15 24 33 37 46 42 52 77 116 105 36 19 24 25 31 14 0 5 11 2 76 133 127 76 26 0 0 0 0 0 0 0 0 0 0 32 0 0 0 0 90 575 814 1243
6 18 35 51 59 60 40 156 187 59 43 28 31 8 8 1 0 0 4 71 11 21 5 39 59 28 20 1 0 0 0 0 0 0 0 0 0 0 0 0 3 783 1059 1580
3 15 34 60 72 74 38 29 99 69 29 32 1 2 7 9 0 0 0 0 20 10 11 26 18 0 0 59 85 0 0 0 0 0 0 0 0 0 80 26 3 62 1122 1710
1 2 35 68 65 86 57 58 36 32 7 34 8 0 2 1 23 7 0 0 0 32 7 11 0 0 0 0 59 91 0 0 0 0 0 425 6 0 114 214 346 535 1494 1792
0 0 3 37 68 66 89 10 0 10 23 18 25 0 25 67 1 0 0 0 4 50 59 25 7 0 0 9 178 410 269 143 68 0 266 28 0 0 0 324 815 813 1491 1961
13 16 21 32 24 37 55 25 2 0 9 24 12 7 159 108 50 33 43 20 28 61 65 40 15 49 0 0 251 432 119 41 63 124 148 382 370 50 31 231 405 957 1533 2005
14 16 17 5 0 7 12 8 1 0 24 42 28 7 47 110 150 145 276 130 61 55 38 37 38 38 4 29 408 59 4 7 86 267 294 408 626 718 386 381 1391 1642 1912 2155
6 1 0 7 14 38 47 0 0 0 41 32 25 16 70 31 84 76 62 127 83 90 33 1 16 30 58 234 64 148 149 206 105 83 207 548 845 1130 999 1023 1739 1941 2031 2280
0 0 9 32 34 0 0 10 41 15 29 24 10 3 0 68 56 34 58 103 59 13 0 26 5 41 0 118 220 330 426 453 120 287 1397 1184 1217 1248 1506 1748 1994 2270 2323 2527
0 0 0 0 0 10 41 32 39 32 25 20 4 0 14 0 39 49 49 60 36 25 26 1 17 36 294 402 522 448 493 381 294 817 1240 1805 1670 1680 2008 1971 2126 2201 2345 2355
0 1 2 1 8 23 22 17 20 10 25 8 2 8 1 13 0 40 39 22 36 6 7 1 10 453 358 553 469 492 652 164 1011 2045 2087 2072 2195 2183 2194 2340 2304 2327 2295 2228
1 9 14 6 5 3 1 0 11 26 8 98 48 36 29 0 0 17 80 11 14 15 38 60 170 63 241 220 539 833 701 393 569 1945 2089 2117 2149 2175 2228 2298 2228 2178 2192 2144
3 11 4 0 0 0 0 0 9 7 0 0 3 10 33 12 1 8 16 43 69 19 11 135 165 9 113 236 288 893 1060 911 525 1110 2032 2143 2134 2111 2105 2115 2124 2091 2069 2020
4 11 6 0 0 0 0 0 0 1 0 0 19 84 10 34 14 4 15 32 45 35 64 64 51 7 8 18 125 648 572 909 1118 806 1223 1985 2113 2053 1948 1884 1843 1846 1876 1831
2 9 0 0 0 0 0 0 6 11 1 0 0 39 42 13 12 1 11 33 28 72 79 35 2 0 0 7 3 169 404 474 730 1245 1165 955 1879 2136 1870 1838 1745 1752 1798 1683
10 12 2 0 0 0 0 0 7 0 0 56 64 51 53 1 12 5 61 75 189 187 0 0 2 0 0 0 0 2 96 303 608 669 1186 1514 1645 1843 2029 1921 1699 1594 1426 1518